Regional Weather Roundup
Issued by NWS

Home | Current Version | Previous Version | Graphics & Text | Print | Product List | Glossary On
Versions: 1 2 3 4 5 6 7 8 9 10 11 12 13 14 15 16 17 18 19 20 21 22 23 24 25 26 27 28 29 30 31 32 33 34 35 36 37 38 39 40 41 42 43 44 45 46 47 48 49 50
000
ASUS43 KTOP 300208
RWRKS

WEATHER ROUNDUP FOR KANSAS
NATIONAL WEATHER SERVICE GOODLAND KS
900 PM CDT WED JUL 29 2015

NOTE:  "FAIR" INDICATES FEW OR NO CLOUDS BELOW 12,000 FEET WITH NO
SIGNIFICANT WEATHER AND/OR OBSTRUCTIONS TO VISIBILITY.

KSZ001>006-013>018-027>032-041>047-300300-
NORTHWEST KANSAS

CITY           SKY/WX    TMP DP  RH WIND       PRES   REMARKS
GOODLAND       CLEAR     69  48  47 SE7       30.25R
HAYS           CLEAR     75  55  50 E9        30.18S
HILL CITY      CLEAR     74  58  57 SE6       30.20R
RUSSELL        CLEAR     74  60  61 E9        30.16S
$$

KSZ061>065-074>080-084>089-300300-
SOUTHWEST KANSAS

CITY           SKY/WX    TMP DP  RH WIND       PRES   REMARKS
DODGE CITY     PTCLDY    73  65  75 NE7       30.19S
ELKHART          N/A     75  65  71 E7          N/A
GARDEN CITY    CLEAR     73  64  73 E6        30.21R
GREAT BEND     CLEAR     75  64  69 E6        30.17R
LIBERAL        PTCLDY    79  64  61 E10       30.19R
PRATT          MOCLDY    75  64  69 E6        30.18R
$$

KSZ066>073-081>083-090>101-300300-
SOUTHEAST KANSAS

CITY           SKY/WX    TMP DP  RH WIND       PRES   REMARKS
CHANUTE        MOCLDY    81  67  62 NE10      30.11S
COFFEYVILLE    MOCLDY    82  71  69 NE6       30.07S
HUTCHINSON     MOCLDY    77  68  73 NE5       30.15R
MEDICINE LODGE   N/A     75  70  84 NE9       30.13S
PARSONS        MOCLDY    82  71  69 NE7       30.09F
WICHITA INTL   MOCLDY    78  70  76 NE12      30.12S
WICHITA JABRA  CLOUDY    78  69  73 NE7       30.14R
WICHITA MCCONL MOCLDY    78  68  72 NE9       30.13R
WINFIELD       MOCLDY    76  73  91 NE7       30.11S
$$

KSZ007>012-019>026-033>040-048>060-102>105-300300-
NORTHEAST KANSAS

CITY           SKY/WX    TMP DP  RH WIND       PRES   REMARKS
CONCORDIA      CLEAR     73  63  70 CALM      30.17F
EMPORIA        CLOUDY    77  67  71 NE7       30.14R
LAWRENCE       CLEAR     73  70  90 N6        30.14S
MANHATTAN      PTCLDY    74  65  73 CALM      30.15S
MARYSVILLE     PTCLDY    72  68  88 CALM      30.16F
OLATHE IND     CLEAR     75  67  76 N6        30.15S
OLATHE EXE     CLEAR     77  66  68 N5        30.14S
SALINA         CLEAR     80  65  59 NE8       30.15R
TOPEKA BILLARD CLEAR     75  70  84 CALM      30.14S
TOPEKA FORBES  CLEAR     77  69  76 N6        30.14S
$$


USA.gov is the U.S. government's official web portal to all federal, state and local government web resources and services.